OSCAR 7 (AO-7) (7530 NORAD) Tracking and Keplerian Element Data

This shows tracking and keplerian element data for the satellite.

Feedback or suggestion? Click here.




ElementValue
Catalog7530
NameOSCAR 7 (AO-7)
Epoch Orbit12702
Epoch Day130.89744198
Epoch Year2021
RAAN105.4438
Inclination101.8516
Eccentricity0.0012624
Argument of Perigee93.8977
Mean Anonmoly298.2461
Mean Motion12.53648663
Decay Rate-5.1E-07
L11 07530U 74089B 21130.89744198 -.00000051 00000-0 -33213-4 0 9994
L22 07530 101.8516 105.4438 0012624 93.8977 298.2461 12.53648663127020

Live tracking and technical data element details for OSCAR 7 (AO-7) (NORAD 7530). OSCAR 7 (AO-7) can be tracked NOW for your location showing map with azimuth and elevation plus other details from your city location.

Track the satellite on the map from your city or location and see movement details for azimuth, elevation, latitude, longitude, range, height, and movement on the map or in text.







IsCatalogInMostPopularTable: catalog: 7530, numindb: 2091
Update: records affected: 1



GetName: 7530 OSCAR 7 (AO-7)

Hit Count: updated at: Tue, 11 May 2021 20:38:32 GMT